This demonstration page uses our WeatherBlox Daily Observations layout. Learn more.

Left ArrowRight Arrow

39.51506, -84.39828

Hourly Observations for January 21, 2021

Temp ( °F °C ) Dew Point ( °F °C ) Humidity (%) Winds ( mph kmh ) Pressure ( in mb ) Visibility ( mi km ) Precip ( " mm )
12:15 am 00:15 Mostly Cloudy 33 0.4 17 -8.1 53 53 SW 12 19 29.99 1016 10 16.0934 N/A
12:35 am 00:35 Cloudy 33 0.6 18 -7.9 53 53 SSW 13 20 29.97 1015 10 16.0934 N/A
12:55 am 00:55 Mostly Cloudy 33 0.3 17 -8.2 53 53 SSW 9 15 29.96 1015 10 16.0934 N/A
1:15 am 01:15 Partly Cloudy 32 undefined 18 -8 55 55 SSW 10 17 29.96 1014 10 16.0934 N/A
1:35 am 01:35 Clear 31 -0.5 18 -7.6 59 59 SSW 9 15 29.95 1014 10 16.0934 N/A
1:55 am 01:55 Clear 31 -0.8 19 -7.3 62 62 SW 9 15 29.94 1014 10 16.0934 N/A
2:15 am 02:15 Clear 30 -1.1 20 -6.9 65 65 WSW 8 13 29.94 1014 10 16.0934 N/A
2:35 am 02:35 Clear 30 -1 19 -7.3 63 63 SW 8 13 29.93 1013 10 16.0934 N/A
2:55 am 02:55 Clear 31 -0.7 20 -6.9 63 63 SW 9 15 29.93 1013 10 16.0934 N/A
3:15 am 03:15 Clear 31 -0.8 20 -6.8 64 64 SW 9 15 29.92 1013 10 16.0934 N/A
3:35 am 03:35 Clear 31 -0.8 20 -6.5 66 66 SW 10 17 29.92 1013 10 16.0934 N/A
3:55 am 03:55 Clear 30 -0.9 20 -6.5 66 66 SW 7 11 29.91 1013 10 16.0934 N/A
4:15 am 04:15 Clear 30 -1 20 -6.5 67 67 SW 7 11 29.91 1013 10 16.0934 N/A
4:35 am 04:35 Clear 30 -1.1 20 -6.6 67 67 WSW 6 9 29.91 1013 10 16.0934 N/A
4:55 am 04:55 Clear 30 -1.1 21 -6 70 70 SW 9 15 29.91 1013 10 16.0934 N/A
5:15 am 05:15 Clear 30 -1 22 -5.7 71 71 SW 12 19 29.91 1013 10 16.0934 N/A
5:35 am 05:35 Clear 30 -0.9 22 -5.3 72 72 SW 10 17 29.91 1013 10 16.0934 N/A
5:55 am 05:55 Clear 31 -0.8 23 -5 74 74 SW 10 17 29.9 1012 10 16.0934 N/A
6:15 am 06:15 Clear 31 -0.6 23 -4.9 73 73 SW 10 17 29.9 1012 10 16.0934 N/A
6:35 am 06:35 Clear 31 -0.7 24 -4.4 76 76 SW 10 17 29.91 1013 10 16.0934 N/A
6:55 am 06:55 Clear 32 0.1 25 -3.7 76 76 SW 12 19 29.9 1013 10 16.0934 N/A
7:15 am 07:15 Clear 33 0.3 26 -3.1 78 78 SW 13 20 29.91 1013 10 16.0934 N/A
7:35 am 07:35 Clear 33 0.3 28 -2.5 82 82 SW 12 19 29.9 1013 10 16.0934 N/A
7:55 am 07:55 Sunny 32 0.2 28 -2.3 84 84 SW 9 15 29.9 1013 10 16.0934 N/A
8:15 am 08:15 Sunny 32 -0.1 28 -2.1 87 87 SW 8 13 29.91 1013 10 16.0934 N/A
8:35 am 08:35 Sunny 33 0.4 29 -1.7 86 86 SW 8 13 29.9 1013 10 16.0934 N/A
8:55 am 08:55 Sunny 34 1.3 30 -1.2 84 84 SW 10 17 29.9 1013 10 16.0934 N/A
9:15 am 09:15 Sunny 36 2.3 31 -0.6 81 81 SW 12 19 29.9 1012 10 16.0934 N/A
9:35 am 09:35 Sunny 37 3 31 -0.3 79 79 SW 14 22 29.91 1013 10 16.0934 N/A
9:55 am 09:55 Sunny 39 3.7 32 undefined 77 77 SW 15 24 29.91 1013 10 16.0934 N/A
10:15 am 10:15 Sunny 40 4.3 32 -0.1 73 73 WSW 14 22 29.9 1013 10 16.0934 N/A
10:35 am 10:35 Sunny 40 4.7 32 -0.2 71 71 WSW 16 26 29.9 1013 10 16.0934 N/A
10:55 am 10:55 Sunny 42 5.4 32 -0.2 68 68 WSW 15 24 29.9 1013 10 16.0934 N/A
11:15 am 11:15 Sunny 43 5.9 31 -0.4 64 64 SW 15 24 29.89 1012 10 16.0934 N/A
11:35 am 11:35 Sunny 43 6.3 31 -0.7 61 61 WSW 15 24 29.89 1012 10 16.0934 N/A
11:55 am 11:55 Sunny 44 6.5 31 -0.6 61 61 W 14 22 29.88 1012 10 16.0934 N/A
12:15 pm 12:15 Sunny 45 7.3 31 -0.5 58 58 WSW 14 22 29.87 1011 10 16.0934 N/A
12:35 pm 12:35 Sunny 46 7.9 31 -0.6 55 55 WSW 15 24 29.84 1011 10 16.0934 N/A
12:55 pm 12:55 Sunny 48 8.7 29 -1.9 48 48 WSW 16 26 29.83 1010 10 16.0934 N/A
1:15 pm 13:15 Sunny 48 9 25 -3.8 41 41 WSW 23 37 29.82 1010 10 16.0934 N/A
1:35 pm 13:35 Sunny 49 9.7 25 -4 38 38 WSW 23 37 29.81 1009 10 16.0934 N/A
1:55 pm 13:55 Sunny 49 9.5 24 -4.4 38 38 W 21 33 29.81 1009 10 16.0934 N/A
2:15 pm 14:15 Sunny 49 9.4 22 -5.3 35 35 W 18 30 29.81 1009 10 16.0934 N/A
2:35 pm 14:35 Sunny 50 9.8 22 -5.3 34 34 W 20 31 29.81 1009 10 16.0934 N/A
2:55 pm 14:55 Sunny 49 9.6 23 -5.2 35 35 W 20 31 29.81 1009 10 16.0934 N/A
3:15 pm 15:15 Sunny 49 9.6 22 -5.7 34 34 W 20 31 29.81 1009 10 16.0934 N/A
3:35 pm 15:35 Sunny 50 9.8 23 -5 35 35 WSW 18 30 29.81 1009 10 16.0934 N/A
3:55 pm 15:55 Sunny 49 9.4 22 -5.4 35 35 W 18 30 29.82 1010 10 16.0934 N/A
4:15 pm 16:15 Sunny 49 9.3 21 -6.2 33 33 W 13 20 29.81 1010 10 16.0934 N/A
4:35 pm 16:35 Sunny 49 9.2 20 -6.6 32 32 W 15 24 29.81 1010 10 16.0934 N/A
4:55 pm 16:55 Sunny 48 8.8 20 -6.5 34 34 W 14 22 29.81 1010 10 16.0934 N/A
5:15 pm 17:15 Sunny 47 8.4 19 -7 33 33 WSW 14 22 29.81 1010 10 16.0934 N/A
5:35 pm 17:35 Sunny 45 7.3 20 -6.8 36 36 W 12 19 29.83 1010 10 16.0934 N/A
5:55 pm 17:55 Clear 44 6.8 21 -6.3 39 39 WSW 10 17 29.83 1010 10 16.0934 N/A
6:15 pm 18:15 Clear 43 6.3 21 -6.2 41 41 WSW 12 19 29.83 1010 10 16.0934 N/A
6:35 pm 18:35 Clear 43 6.1 21 -6.2 41 41 WSW 9 15 29.83 1010 10 16.0934 N/A
6:55 pm 18:55 Clear 41 5.1 21 -6 45 45 SW 10 17 29.84 1011 10 16.0934 N/A
7:15 pm 19:15 Clear 40 4.2 21 -5.9 48 48 SW 8 13 29.84 1011 10 16.0934 N/A
7:35 pm 19:35 Clear 39 3.8 22 -5.6 51 51 SW 9 15 29.85 1011 10 16.0934 N/A
7:55 pm 19:55 Clear 40 4.6 22 -5.5 48 48 SW 12 19 29.85 1011 10 16.0934 N/A
8:15 pm 20:15 Clear 41 5.2 21 -6 45 45 SW 13 20 29.85 1011 10 16.0934 N/A
8:35 pm 20:35 Clear 41 4.8 21 -5.9 46 46 SW 13 20 29.85 1011 10 16.0934 N/A
8:55 pm 20:55 Clear 41 5.1 20 -6.4 44 44 SW 12 19 29.85 1011 10 16.0934 N/A
9:15 pm 21:15 Clear 41 4.8 20 -6.5 44 44 SW 12 19 29.86 1011 10 16.0934 N/A
9:35 pm 21:35 Clear 37 2.9 21 -6.1 52 52 SW 9 15 29.87 1011 10 16.0934 N/A
9:55 pm 21:55 Clear 37 2.6 21 -6.2 53 53 SW 8 13 29.87 1011 10 16.0934 N/A
10:15 pm 22:15 Clear 37 2.6 21 -6.1 53 53 SW 8 13 29.87 1011 10 16.0934 N/A
10:35 pm 22:35 Clear 36 2 22 -5.4 58 58 SW 8 13 29.87 1011 10 16.0934 N/A
10:55 pm 22:55 Clear 35 1.4 22 -5.5 60 60 SW 8 13 29.87 1012 10 16.0934 N/A
11:15 pm 23:15 Clear 35 1.4 22 -5.4 61 61 SW 10 17 29.87 1012 10 16.0934 N/A
11:35 pm 23:35 Clear 35 1.4 23 -5.2 62 62 SW 10 17 29.87 1012 10 16.0934 N/A
11:55 pm 23:55 Clear 34 1 23 -5.1 64 64 SW 10 17 29.88 1012 10 16.0934 N/A

Powered by AerisWeather